![]() |
EMODnet Physics ERDDAP
Easier access to scientific data |
log in|
Brought to you by EMODnet Physics |
| Dataset Title: | NDBC - Collection of dew point temperature (DEWT) TimeSeries - IN SITU MultiPointTimeSeriesObservation
|
| Institution: | NDBC (Dataset ID: TS_DEWT_NDBC) |
| Information: | Summary
| License
| FGDC
| ISO 19115
| Metadata
| Background
| Subset
| Data Access Form
| Make a graph
|
| Name | Last modified | Size | Description | |
|---|---|---|---|---|
| Parent Directory | - | - | ||
| 46069_TS_DEWT_012004.nc | 27-Oct-2024 00:29 | 429891 | ||
| 46069_TS_DEWT_012005.nc | 27-Oct-2024 00:29 | 429749 | ||
| 46069_TS_DEWT_012006.nc | 27-Oct-2024 00:29 | 429890 | ||
| 46069_TS_DEWT_012007.nc | 27-Oct-2024 00:29 | 422398 | ||
| 46069_TS_DEWT_012008.nc | 27-Oct-2024 00:29 | 429864 | ||
| 46069_TS_DEWT_012009.nc | 27-Oct-2024 00:29 | 429891 | ||
| 46069_TS_DEWT_012010.nc | 27-Oct-2024 00:29 | 429269 | ||
| 46069_TS_DEWT_012011.nc | 27-Oct-2024 00:29 | 429544 | ||
| 46069_TS_DEWT_012012.nc | 27-Oct-2024 00:29 | 429504 | ||
| 46069_TS_DEWT_012013.nc | 27-Oct-2024 00:30 | 429504 | ||
| 46069_TS_DEWT_012014.nc | 27-Oct-2024 00:30 | 429496 | ||
| 46069_TS_DEWT_012015.nc | 27-Oct-2024 00:30 | 429529 | ||
| 46069_TS_DEWT_012016.nc | 27-Oct-2024 00:30 | 429487 | ||
| 46069_TS_DEWT_012017.nc | 27-Oct-2024 00:30 | 429430 | ||
| 46069_TS_DEWT_012018.nc | 27-Oct-2024 00:30 | 429535 | ||
| 46069_TS_DEWT_012019.nc | 27-Oct-2024 00:30 | 429502 | ||
| 46069_TS_DEWT_012020.nc | 27-Oct-2024 00:30 | 429543 | ||
| 46069_TS_DEWT_012021.nc | 27-Oct-2024 00:30 | 429030 | ||
| 46069_TS_DEWT_012022.nc | 27-Oct-2024 00:30 | 429543 | ||
| 46069_TS_DEWT_012023.nc | 27-Oct-2024 00:30 | 429546 | ||
| 46069_TS_DEWT_012024.nc | 27-Oct-2024 00:30 | 429364 | ||
| 46069_TS_DEWT_012025.nc | 26-Jan-2025 07:03 | 429527 | ||
| 46069_TS_DEWT_022004.nc | 27-Oct-2024 00:30 | 429548 | ||
| 46069_TS_DEWT_022005.nc | 27-Oct-2024 00:30 | 429523 | ||
| 46069_TS_DEWT_022006.nc | 27-Oct-2024 00:30 | 429869 | ||
| 46069_TS_DEWT_022007.nc | 27-Oct-2024 00:31 | 429612 | ||
| 46069_TS_DEWT_022008.nc | 27-Oct-2024 00:31 | 429784 | ||
| 46069_TS_DEWT_022009.nc | 27-Oct-2024 00:31 | 429665 | ||
| 46069_TS_DEWT_022011.nc | 27-Oct-2024 00:31 | 429884 | ||
| 46069_TS_DEWT_022012.nc | 27-Oct-2024 00:31 | 429885 | ||
| 46069_TS_DEWT_022013.nc | 27-Oct-2024 00:31 | 429890 | ||
| 46069_TS_DEWT_022014.nc | 27-Oct-2024 00:31 | 429886 | ||
| 46069_TS_DEWT_022015.nc | 27-Oct-2024 00:31 | 429887 | ||
| 46069_TS_DEWT_022016.nc | 27-Oct-2024 00:31 | 429883 | ||
| 46069_TS_DEWT_022017.nc | 27-Oct-2024 00:31 | 429887 | ||
| 46069_TS_DEWT_022018.nc | 27-Oct-2024 00:31 | 426927 | ||
| 46069_TS_DEWT_022019.nc | 27-Oct-2024 00:31 | 429834 | ||
| 46069_TS_DEWT_022020.nc | 27-Oct-2024 00:31 | 429039 | ||
| 46069_TS_DEWT_022021.nc | 27-Oct-2024 00:31 | 429848 | ||
| 46069_TS_DEWT_022022.nc | 27-Oct-2024 00:31 | 429882 | ||
| 46069_TS_DEWT_022023.nc | 27-Oct-2024 00:32 | 429889 | ||
| 46069_TS_DEWT_022024.nc | 16-Sep-2024 16:51 | 429606 | ||
| 46069_TS_DEWT_022026.nc | 23-Feb-2026 08:08 | 428064 | ||
| 46069_TS_DEWT_032004.nc | 27-Oct-2024 00:32 | 429227 | ||
| 46069_TS_DEWT_032005.nc | 27-Oct-2024 00:32 | 429497 | ||
| 46069_TS_DEWT_032006.nc | 27-Oct-2024 00:32 | 429039 | ||
| 46069_TS_DEWT_032007.nc | 27-Oct-2024 00:32 | 429469 | ||
| 46069_TS_DEWT_032008.nc | 27-Oct-2024 00:32 | 429545 | ||
| 46069_TS_DEWT_032009.nc | 27-Oct-2024 00:32 | 429539 | ||
| 46069_TS_DEWT_032011.nc | 27-Oct-2024 00:32 | 429279 | ||
| 46069_TS_DEWT_032012.nc | 27-Oct-2024 00:32 | 429322 | ||
| 46069_TS_DEWT_032013.nc | 27-Oct-2024 00:32 | 429399 | ||
| 46069_TS_DEWT_032014.nc | 27-Oct-2024 00:32 | 429476 | ||
| 46069_TS_DEWT_032015.nc | 27-Oct-2024 00:32 | 429151 | ||
| 46069_TS_DEWT_032016.nc | 27-Oct-2024 00:32 | 429030 | ||
| 46069_TS_DEWT_032017.nc | 27-Oct-2024 00:32 | 429474 | ||
| 46069_TS_DEWT_032018.nc | 27-Oct-2024 00:32 | 429379 | ||
| 46069_TS_DEWT_032019.nc | 27-Oct-2024 00:32 | 429050 | ||
| 46069_TS_DEWT_032020.nc | 27-Oct-2024 00:32 | 429544 | ||
| 46069_TS_DEWT_032021.nc | 27-Oct-2024 00:33 | 429543 | ||
| 46069_TS_DEWT_032022.nc | 27-Oct-2024 00:33 | 429872 | ||
| 46069_TS_DEWT_032023.nc | 27-Oct-2024 00:33 | 429868 | ||
| 46069_TS_DEWT_032025.nc | 02-Apr-2025 06:47 | 429719 | ||
| 46069_TS_DEWT_042004.nc | 27-Oct-2024 00:33 | 429891 | ||
| 46069_TS_DEWT_042005.nc | 27-Oct-2024 00:33 | 418868 | ||
| 46069_TS_DEWT_042006.nc | 27-Oct-2024 00:33 | 429881 | ||
| 46069_TS_DEWT_042007.nc | 27-Oct-2024 00:33 | 429855 | ||
| 46069_TS_DEWT_042008.nc | 27-Oct-2024 00:33 | 429885 | ||
| 46069_TS_DEWT_042011.nc | 27-Oct-2024 00:33 | 429815 | ||
| 46069_TS_DEWT_042012.nc | 27-Oct-2024 00:33 | 429888 | ||
| 46069_TS_DEWT_042013.nc | 27-Oct-2024 00:33 | 429866 | ||
| 46069_TS_DEWT_042014.nc | 27-Oct-2024 00:33 | 429883 | ||
| 46069_TS_DEWT_042015.nc | 27-Oct-2024 00:33 | 429890 | ||
| 46069_TS_DEWT_042016.nc | 27-Oct-2024 00:33 | 429693 | ||
| 46069_TS_DEWT_042017.nc | 27-Oct-2024 00:33 | 429862 | ||
| 46069_TS_DEWT_042018.nc | 27-Oct-2024 00:33 | 429890 | ||
| 46069_TS_DEWT_042019.nc | 27-Oct-2024 00:33 | 429871 | ||
| 46069_TS_DEWT_042020.nc | 27-Oct-2024 00:33 | 429889 | ||
| 46069_TS_DEWT_042021.nc | 27-Oct-2024 00:33 | 429855 | ||
| 46069_TS_DEWT_042022.nc | 27-Oct-2024 00:33 | 429044 | ||
| 46069_TS_DEWT_042023.nc | 27-Oct-2024 00:33 | 429888 | ||
| 46069_TS_DEWT_052004.nc | 27-Oct-2024 00:34 | 429885 | ||
| 46069_TS_DEWT_052005.nc | 27-Oct-2024 00:34 | 429888 | ||
| 46069_TS_DEWT_052006.nc | 27-Oct-2024 00:34 | 429887 | ||
| 46069_TS_DEWT_052007.nc | 27-Oct-2024 00:34 | 429718 | ||
| 46069_TS_DEWT_052008.nc | 27-Oct-2024 00:34 | 429749 | ||
| 46069_TS_DEWT_052011.nc | 27-Oct-2024 00:34 | 429858 | ||
| 46069_TS_DEWT_052012.nc | 27-Oct-2024 00:34 | 429888 | ||
| 46069_TS_DEWT_052013.nc | 27-Oct-2024 00:34 | 429333 | ||
| 46069_TS_DEWT_052014.nc | 27-Oct-2024 00:34 | 429867 | ||
| 46069_TS_DEWT_052015.nc | 27-Oct-2024 00:34 | 429889 | ||
| 46069_TS_DEWT_052016.nc | 27-Oct-2024 00:34 | 429739 | ||
| 46069_TS_DEWT_052017.nc | 27-Oct-2024 00:34 | 429888 | ||
| 46069_TS_DEWT_052018.nc | 27-Oct-2024 00:34 | 429891 | ||
| 46069_TS_DEWT_052019.nc | 27-Oct-2024 00:34 | 429002 | ||
| 46069_TS_DEWT_052020.nc | 27-Oct-2024 00:34 | 427700 | ||
| 46069_TS_DEWT_052021.nc | 27-Oct-2024 00:34 | 426033 | ||
| 46069_TS_DEWT_052022.nc | 27-Oct-2024 00:34 | 429146 | ||
| 46069_TS_DEWT_052023.nc | 27-Oct-2024 00:34 | 427609 | ||
| 46069_TS_DEWT_062004.nc | 27-Oct-2024 00:34 | 429549 | ||
| 46069_TS_DEWT_062005.nc | 27-Oct-2024 00:34 | 429544 | ||
| 46069_TS_DEWT_062006.nc | 27-Oct-2024 00:34 | 429547 | ||
| 46069_TS_DEWT_062007.nc | 27-Oct-2024 00:34 | 429474 | ||
| 46069_TS_DEWT_062008.nc | 27-Oct-2024 00:34 | 429546 | ||
| 46069_TS_DEWT_062011.nc | 27-Oct-2024 00:35 | 429548 | ||
| 46069_TS_DEWT_062012.nc | 27-Oct-2024 00:35 | 429546 | ||
| 46069_TS_DEWT_062013.nc | 27-Oct-2024 00:35 | 429360 | ||
| 46069_TS_DEWT_062014.nc | 27-Oct-2024 00:35 | 429540 | ||
| 46069_TS_DEWT_062015.nc | 27-Oct-2024 00:35 | 429431 | ||
| 46069_TS_DEWT_062016.nc | 27-Oct-2024 00:35 | 429545 | ||
| 46069_TS_DEWT_062017.nc | 27-Oct-2024 00:35 | 429159 | ||
| 46069_TS_DEWT_062018.nc | 27-Oct-2024 00:35 | 429550 | ||
| 46069_TS_DEWT_062019.nc | 27-Oct-2024 00:35 | 427117 | ||
| 46069_TS_DEWT_062020.nc | 27-Oct-2024 00:35 | 429604 | ||
| 46069_TS_DEWT_062021.nc | 27-Oct-2024 00:35 | 429817 | ||
| 46069_TS_DEWT_062023.nc | 27-Oct-2024 00:35 | 429888 | ||
| 46069_TS_DEWT_072004.nc | 27-Oct-2024 00:35 | 429888 | ||
| 46069_TS_DEWT_072005.nc | 27-Oct-2024 00:35 | 429776 | ||
| 46069_TS_DEWT_072006.nc | 27-Oct-2024 00:35 | 428741 | ||
| 46069_TS_DEWT_072007.nc | 27-Oct-2024 00:35 | 429887 | ||
| 46069_TS_DEWT_072008.nc | 27-Oct-2024 00:35 | 429754 | ||
| 46069_TS_DEWT_072010.nc | 27-Oct-2024 00:35 | 429537 | ||
| 46069_TS_DEWT_072012.nc | 27-Oct-2024 00:36 | 429546 | ||
| 46069_TS_DEWT_072013.nc | 27-Oct-2024 00:36 | 429888 | ||
| 46069_TS_DEWT_072014.nc | 27-Oct-2024 00:36 | 429887 | ||
| 46069_TS_DEWT_072015.nc | 27-Oct-2024 00:36 | 429869 | ||
| 46069_TS_DEWT_072016.nc | 27-Oct-2024 00:36 | 429869 | ||
| 46069_TS_DEWT_072017.nc | 27-Oct-2024 00:36 | 429181 | ||
| 46069_TS_DEWT_072018.nc | 27-Oct-2024 00:36 | 429886 | ||
| 46069_TS_DEWT_072019.nc | 27-Oct-2024 00:36 | 429266 | ||
| 46069_TS_DEWT_072020.nc | 27-Oct-2024 00:36 | 429545 | ||
| 46069_TS_DEWT_072021.nc | 27-Oct-2024 00:36 | 429142 | ||
| 46069_TS_DEWT_072023.nc | 27-Oct-2024 00:36 | 429154 | ||
| 46069_TS_DEWT_082004.nc | 27-Oct-2024 00:36 | 429546 | ||
| 46069_TS_DEWT_082005.nc | 27-Oct-2024 00:36 | 429388 | ||
| 46069_TS_DEWT_082006.nc | 27-Oct-2024 00:36 | 428177 | ||
| 46069_TS_DEWT_082007.nc | 27-Oct-2024 00:36 | 428978 | ||
| 46069_TS_DEWT_082008.nc | 27-Oct-2024 00:36 | 429543 | ||
| 46069_TS_DEWT_082010.nc | 27-Oct-2024 00:36 | 428348 | ||
| 46069_TS_DEWT_082012.nc | 27-Oct-2024 00:36 | 429355 | ||
| 46069_TS_DEWT_082013.nc | 27-Oct-2024 00:36 | 427995 | ||
| 46069_TS_DEWT_082014.nc | 27-Oct-2024 00:36 | 429141 | ||
| 46069_TS_DEWT_082015.nc | 27-Oct-2024 00:36 | 428895 | ||
| 46069_TS_DEWT_082016.nc | 27-Oct-2024 00:37 | 429465 | ||
| 46069_TS_DEWT_082017.nc | 27-Oct-2024 00:37 | 429548 | ||
| 46069_TS_DEWT_082018.nc | 27-Oct-2024 00:37 | 429545 | ||
| 46069_TS_DEWT_082019.nc | 27-Oct-2024 00:37 | 429790 | ||
| 46069_TS_DEWT_082020.nc | 27-Oct-2024 00:37 | 429029 | ||
| 46069_TS_DEWT_082021.nc | 27-Oct-2024 00:37 | 429891 | ||
| 46069_TS_DEWT_082022.nc | 27-Oct-2024 00:37 | 429823 | ||
| 46069_TS_DEWT_082023.nc | 27-Oct-2024 00:37 | 429891 | ||
| 46069_TS_DEWT_092004.nc | 27-Oct-2024 00:37 | 429886 | ||
| 46069_TS_DEWT_092005.nc | 27-Oct-2024 00:37 | 429887 | ||
| 46069_TS_DEWT_092006.nc | 27-Oct-2024 00:37 | 429890 | ||
| 46069_TS_DEWT_092007.nc | 27-Oct-2024 00:37 | 429887 | ||
| 46069_TS_DEWT_092008.nc | 27-Oct-2024 00:37 | 429754 | ||
| 46069_TS_DEWT_092009.nc | 27-Oct-2024 00:37 | 429866 | ||
| 46069_TS_DEWT_092010.nc | 27-Oct-2024 00:37 | 429631 | ||
| 46069_TS_DEWT_092011.nc | 27-Oct-2024 00:37 | 429887 | ||
| 46069_TS_DEWT_092012.nc | 27-Oct-2024 00:37 | 429888 | ||
| 46069_TS_DEWT_092013.nc | 27-Oct-2024 00:37 | 429887 | ||
| 46069_TS_DEWT_092014.nc | 27-Oct-2024 00:37 | 424180 | ||
| 46069_TS_DEWT_092015.nc | 27-Oct-2024 00:37 | 429882 | ||
| 46069_TS_DEWT_092016.nc | 27-Oct-2024 00:37 | 422044 | ||
| 46069_TS_DEWT_092017.nc | 27-Oct-2024 00:38 | 428572 | ||
| 46069_TS_DEWT_092018.nc | 27-Oct-2024 00:38 | 428984 | ||
| 46069_TS_DEWT_092019.nc | 27-Oct-2024 00:38 | 429733 | ||
| 46069_TS_DEWT_092020.nc | 27-Oct-2024 00:38 | 429648 | ||
| 46069_TS_DEWT_092022.nc | 27-Oct-2024 00:38 | 429647 | ||
| 46069_TS_DEWT_092023.nc | 27-Oct-2024 00:38 | 429742 | ||
| 46069_TS_DEWT_102004.nc | 27-Oct-2024 00:38 | 429843 | ||
| 46069_TS_DEWT_102005.nc | 27-Oct-2024 00:38 | 427176 | ||
| 46069_TS_DEWT_102006.nc | 27-Oct-2024 00:38 | 429841 | ||
| 46069_TS_DEWT_102007.nc | 27-Oct-2024 00:38 | 429672 | ||
| 46069_TS_DEWT_102008.nc | 27-Oct-2024 00:38 | 420537 | ||
| 46069_TS_DEWT_102009.nc | 27-Oct-2024 00:38 | 429728 | ||
| 46069_TS_DEWT_102010.nc | 27-Oct-2024 00:38 | 429837 | ||
| 46069_TS_DEWT_102011.nc | 27-Oct-2024 00:38 | 429675 | ||
| 46069_TS_DEWT_102012.nc | 27-Oct-2024 00:38 | 429244 | ||
| 46069_TS_DEWT_102013.nc | 27-Oct-2024 00:38 | 428866 | ||
| 46069_TS_DEWT_102014.nc | 27-Oct-2024 00:38 | 429639 | ||
| 46069_TS_DEWT_102015.nc | 27-Oct-2024 00:38 | 428902 | ||
| 46069_TS_DEWT_102016.nc | 27-Oct-2024 00:38 | 428713 | ||
| 46069_TS_DEWT_102017.nc | 27-Oct-2024 00:38 | 428792 | ||
| 46069_TS_DEWT_102018.nc | 27-Oct-2024 00:38 | 428321 | ||
| 46069_TS_DEWT_102019.nc | 27-Oct-2024 00:38 | 429168 | ||
| 46069_TS_DEWT_102020.nc | 27-Oct-2024 00:38 | 428811 | ||
| 46069_TS_DEWT_102021.nc | 27-Oct-2024 00:38 | 429156 | ||
| 46069_TS_DEWT_102022.nc | 27-Oct-2024 00:38 | 428810 | ||
| 46069_TS_DEWT_102023.nc | 27-Oct-2024 00:39 | 428808 | ||
| 46069_TS_DEWT_102024.nc | 12-Jan-2025 20:12 | 424893 | ||
| 46069_TS_DEWT_112004.nc | 27-Oct-2024 00:39 | 429157 | ||
| 46069_TS_DEWT_112005.nc | 27-Oct-2024 00:39 | 428722 | ||
| 46069_TS_DEWT_112006.nc | 27-Oct-2024 00:39 | 428607 | ||
| 46069_TS_DEWT_112007.nc | 27-Oct-2024 00:39 | 429156 | ||
| 46069_TS_DEWT_112008.nc | 27-Oct-2024 00:39 | 428812 | ||
| 46069_TS_DEWT_112009.nc | 27-Oct-2024 00:39 | 428805 | ||
| 46069_TS_DEWT_112010.nc | 27-Oct-2024 00:39 | 428811 | ||
| 46069_TS_DEWT_112011.nc | 27-Oct-2024 00:39 | 419278 | ||
| 46069_TS_DEWT_112012.nc | 27-Oct-2024 00:39 | 429818 | ||
| 46069_TS_DEWT_112013.nc | 27-Oct-2024 00:39 | 429672 | ||
| 46069_TS_DEWT_112014.nc | 27-Oct-2024 00:39 | 429786 | ||
| 46069_TS_DEWT_112015.nc | 27-Oct-2024 00:39 | 429747 | ||
| 46069_TS_DEWT_112016.nc | 27-Oct-2024 00:39 | 429839 | ||
| 46069_TS_DEWT_112017.nc | 27-Oct-2024 00:39 | 429837 | ||
| 46069_TS_DEWT_112018.nc | 27-Oct-2024 00:39 | 429841 | ||
| 46069_TS_DEWT_112019.nc | 27-Oct-2024 00:40 | 429816 | ||
| 46069_TS_DEWT_112020.nc | 27-Oct-2024 00:40 | 429839 | ||
| 46069_TS_DEWT_112021.nc | 27-Oct-2024 00:40 | 429276 | ||
| 46069_TS_DEWT_112022.nc | 27-Oct-2024 00:40 | 429840 | ||
| 46069_TS_DEWT_112023.nc | 27-Oct-2024 00:40 | 429736 | ||
| 46069_TS_DEWT_112024.nc | 16-Jan-2025 15:54 | 421394 | ||
| 46069_TS_DEWT_122003.nc | 27-Oct-2024 00:40 | 429724 | ||
| 46069_TS_DEWT_122004.nc | 27-Oct-2024 00:40 | 429842 | ||
| 46069_TS_DEWT_122005.nc | 27-Oct-2024 00:40 | 422340 | ||
| 46069_TS_DEWT_122006.nc | 27-Oct-2024 00:40 | 429816 | ||
| 46069_TS_DEWT_122007.nc | 27-Oct-2024 00:40 | 429843 | ||
| 46069_TS_DEWT_122008.nc | 27-Oct-2024 00:40 | 424827 | ||
| 46069_TS_DEWT_122009.nc | 27-Oct-2024 00:40 | 429496 | ||
| 46069_TS_DEWT_122010.nc | 27-Oct-2024 00:40 | 429388 | ||
| 46069_TS_DEWT_122011.nc | 27-Oct-2024 00:40 | 429447 | ||
| 46069_TS_DEWT_122012.nc | 27-Oct-2024 00:40 | 429428 | ||
| 46069_TS_DEWT_122013.nc | 27-Oct-2024 00:40 | 429481 | ||
| 46069_TS_DEWT_122014.nc | 27-Oct-2024 00:40 | 429438 | ||
| 46069_TS_DEWT_122015.nc | 27-Oct-2024 00:40 | 429412 | ||
| 46069_TS_DEWT_122016.nc | 27-Oct-2024 00:40 | 429503 | ||
| 46069_TS_DEWT_122017.nc | 27-Oct-2024 00:40 | 429362 | ||
| 46069_TS_DEWT_122018.nc | 27-Oct-2024 00:41 | 429495 | ||
| 46069_TS_DEWT_122019.nc | 27-Oct-2024 00:41 | 429241 | ||
| 46069_TS_DEWT_122020.nc | 27-Oct-2024 00:41 | 429495 | ||
| 46069_TS_DEWT_122021.nc | 27-Oct-2024 00:41 | 429498 | ||
| 46069_TS_DEWT_122022.nc | 27-Oct-2024 00:41 | 429378 | ||
| 46069_TS_DEWT_122023.nc | 27-Oct-2024 00:41 | 429496 | ||
| 46069_TS_DEWT_122024.nc | 19-Jan-2025 21:54 | 429500 | ||